Location: Unspecified
(0.0000°N, 0.0000°E)
Time: 14:21:26
(UTC+00:00)

A-11 Canister half - Pass Details

Date: 25 May 2026
Orbit: 1524 x 1684 km, 47.3° (Epoch: 7 June)

Event Time Altitude Azimuth Distance (km) Brightness Sun altitude
Rises 11:45:13 0° 230° (SW) 4,700 11.4 68.8°
Reaches altitude 10° 11:48:22 10° 234° (SW) 3,703 11.0 68.9°
Maximum altitude 11:57:22 55° 310° (NW) 1,779 10.8 69.0°
Drops below altitude 10° 12:06:22 10° 25° (NNE) 3,689 11.4 68.9°
Sets 12:09:31 0° 30° (NNE) 4,682 11.8 68.8°
